Wind_Speed
15 17 19 21 23 24 25 27 29 30 32 34 35 37 38 40 40 41 41 41 42 41 41 41 40 39 39 38 37 36 35 34 33 32 31 31 30 30 30 29 30 30 31
13 15 18 19 21 22 24 26 28 30 32 34 36 37 39 40 41 41 42 42 42 41 41 40 40 40 40 40 39 38 36 36 36 35 33 32 31 31 30 29 29 29 31
12 14 16 18 19 21 23 25 27 30 32 34 36 37 39 40 40 41 41 41 41 41 41 40 40 40 40 40 40 39 38 36 36 36 35 34 32 32 31 29 29 29 30
10 12 15 17 19 20 22 24 26 29 31 33 35 37 38 38 39 39 39 39 39 39 39 39 38 38 38 38 39 39 38 37 36 36 36 35 33 31 31 30 29 29 30
10 12 14 17 18 20 22 24 25 27 29 30 32 34 36 37 38 38 39 39 38 38 37 36 35 34 34 34 35 36 36 36 36 36 36 36 35 33 32 30 29 30 30
12 15 17 19 21 22 25 26 27 28 29 31 32 33 34 35 36 37 37 37 37 37 36 35 34 33 33 32 32 32 33 34 35 35 35 36 35 34 33 32 31 31 32
17 19 21 23 25 27 29 30 32 32 33 33 34 35 35 35 35 36 37 37 37 37 36 35 34 33 33 33 32 32 32 32 33 34 35 35 36 35 35 33 33 33 32
21 23 26 28 30 31 33 34 35 35 35 35 36 36 36 36 36 37 37 38 37 37 37 36 35 35 35 34 34 33 34 34 34 34 34 35 36 36 36 35 35 35 35
25 27 29 31 33 34 36 37 37 37 37 37 37 37 37 38 38 38 39 38 38 38 38 38 38 37 37 37 36 36 36 36 36 36 35 36 37 36 37 37 38 38 37
27 29 31 33 35 36 38 39 39 39 39 38 38 38 38 39 39 39 39 39 39 39 39 39 39 39 39 39 39 38 38 38 38 38 38 38 38 38 39 39 39 41 39
29 30 32 34 36 38 39 40 40 40 39 39 39 39 39 39 39 39 39 39 39 39 39 39 39 40 40 41 41 41 42 41 41 40 40 40 40 41 40 41 41 41 41
29 31 33 35 37 39 40 40 40 40 40 40 40 40 40 40 40 39 39 39 39 39 39 40 40 41 41 42 43 44 44 45 44 44 43 44 44 43 43 43 43 43 43
29 32 34 36 38 39 40 40 40 41 41 40 40 40 40 40 40 40 39 40 39 39 40 40 41 42 42 43 44 45 46 46 46 46 46 46 46 47 46 46 46 45 44
31 34 36 37 38 39 40 40 41 41 41 41 41 41 41 41 40 40 40 40 40 40 40 41 41 42 42 43 44 45 46 46 47 47 46 47 48 48 49 49 49 49 48
33 35 36 37 39 40 41 41 41 42 42 42 42 42 42 41 41 41 40 40 39 40 40 41 41 41 42 43 44 44 45 45 46 46 47 47 48 50 51 52 52 53 53
34 36 37 39 40 41 41 42 42 43 43 43 43 43 42 42 41 41 40 40 40 40 40 40 40 41 42 42 43 43 43 44 44 45 45 47 48 50 51 53 55 56 55
34 37 39 40 40 41 42 42 43 44 44 44 44 43 43 42 41 41 40 40 40 40 40 40 40 40 41 41 40 40 40 40 41 42 43 46 48 50 52 53 55 56 57
35 38 39 40 41 41 42 43 43 44 45 45 45 44 43 42 41 41 40 40 40 40 40 39 39 39 39 38 38 38 37 37 37 39 41 43 46 48 50 53 55 56 57
36 38 40 40 41 41 42 43 44 45 45 45 45 45 44 42 41 41 41 41 41 40 39 39 38 38 37 36 36 36 35 34 35 37 39 41 44 47 49 52 54 56 58
37 39 40 40 41 41 42 43 44 45 46 45 45 45 44 42 41 41 41 41 40 39 38 38 38 36 34 34 33 32 32 33 34 35 37 39 41 44 47 50 53 55 57
38 39 40 40 41 41 42 43 44 45 46 46 45 45 44 43 42 41 41 41 40 39 38 37 36 34 32 31 30 29 28 28 29 30 32 35 37 41 44 46 49 52 54
38 39 40 40 41 41 42 44 44 46 46 47 46 45 44 43 42 41 41 41 40 38 37 36 35 32 30 27 26 24 23 23 23 24 27 30 34 37 41 44 47 49 51
39 39 40 40 41 41 42 44 45 46 46 47 46 45 44 42 42 41 40 40 39 37 36 35 33 30 27 24 22 19 17 17 17 19 22 26 31 34 37 40 44 46 48
39 39 40 40 41 41 42 44 45 46 46 46 45 44 43 42 41 41 40 40 39 36 34 34 31 28 24 21 19 15 12 11 12 14 18 22 27 32 34 37 40 42 44
39 39 39 40 40 41 42 44 45 45 46 46 45 44 43 41 41 40 40 39 38 36 33 31 30 26 23 20 16 12 9 8 9 10 14 19 24 29 32 34 37 39 42
39 39 40 40 41 42 43 44 45 46 46 45 45 43 42 41 40 39 39 38 37 35 32 30 28 25 21 18 14 10 7 5 5 7 12 17 22 25 28 31 35 37 41
Wind_Direction
288 290 292 292 293 294 295 294 294 293 292 291 290 290 290 291 291 291 291 290 289 288 287 286 284 282 280 278 277 275 274 273 271 271 268 264 262 262 262 258 252 244 236
294 297 298 297 298 299 299 299 297 296 294 293 293 293 292 292 292 291 290 289 288 287 285 283 281 281 279 277 275 273 271 271 270 268 268 265 263 262 260 257 249 243 235
300 302 302 302 303 303 303 302 300 298 297 296 295 294 294 293 292 291 291 290 288 286 284 282 280 278 277 276 274 272 269 267 266 265 264 263 261 258 257 254 248 244 236
311 311 311 311 310 310 308 306 304 301 299 298 297 297 296 295 294 293 292 291 290 288 286 284 281 278 276 273 272 270 268 265 263 262 260 259 258 255 252 250 245 243 240
328 323 320 317 315 313 312 310 308 305 302 300 299 298 297 296 295 294 293 292 290 288 286 284 282 279 277 274 271 268 266 263 261 259 257 255 254 253 249 245 243 240 237
337 332 328 325 323 321 319 318 317 314 311 308 306 303 301 299 298 296 295 294 293 290 288 285 282 280 277 275 271 269 266 263 260 257 255 253 251 250 245 242 239 235 234
342 338 335 333 331 329 327 325 323 321 318 315 312 310 307 305 302 300 298 296 294 291 289 286 283 280 277 274 270 267 266 264 261 257 254 251 249 246 243 241 236 232 230
344 341 338 336 333 331 329 328 326 323 321 318 316 313 310 307 305 303 300 297 294 291 289 287 284 281 278 275 271 267 265 264 261 258 255 251 248 244 240 238 234 231 228
343 340 337 335 333 331 329 327 325 323 321 319 317 314 311 308 306 304 301 298 295 291 288 286 284 281 279 276 273 269 265 263 261 258 256 252 248 245 240 236 233 231 230
340 337 335 333 332 330 328 327 325 324 322 320 317 314 312 309 307 304 301 298 295 292 288 286 284 282 279 276 274 270 266 263 261 258 255 252 249 245 240 235 233 230 229
336 334 333 331 330 329 328 327 326 325 323 321 319 316 314 311 308 305 302 299 296 293 290 287 285 282 280 277 274 271 268 265 262 259 255 251 249 245 241 236 232 229 228
332 331 330 330 329 329 328 327 327 326 325 323 321 318 316 314 311 308 305 302 299 296 292 289 287 284 282 278 275 272 269 266 263 260 256 251 247 244 241 236 232 228 225
329 329 329 329 328 328 329 329 329 328 327 325 324 322 320 317 314 311 308 305 302 298 295 291 288 286 283 280 277 273 270 266 263 260 256 251 247 243 239 235 231 228 224
328 328 328 327 328 329 330 331 330 330 329 328 326 324 322 320 317 314 311 308 305 301 297 294 291 288 284 281 278 274 270 266 262 259 255 250 246 241 237 234 231 228 225
327 327 326 327 329 330 331 332 332 331 331 330 328 326 324 321 319 316 313 311 308 305 301 298 294 290 286 283 280 275 270 265 261 258 254 249 245 241 236 232 230 230 227
325 325 326 328 329 331 331 332 332 332 332 331 330 328 326 323 321 318 316 313 310 307 304 300 297 293 290 287 282 276 270 265 261 257 252 248 244 240 236 232 230 229 227
325 326 328 329 330 331 332 332 333 333 333 333 332 329 327 325 323 321 319 316 314 311 308 304 301 296 292 289 284 278 271 265 261 256 251 247 242 238 235 232 229 226 225
326 327 329 330 331 332 333 333 334 334 334 334 333 331 329 327 325 323 322 320 318 315 312 309 305 300 295 290 286 280 273 266 260 255 251 246 240 236 233 229 226 224 222
327 328 330 331 331 333 333 334 334 335 335 335 334 332 331 329 327 326 325 323 322 319 316 312 308 304 299 293 288 281 274 267 262 256 251 245 239 235 231 227 224 221 220
327 328 329 330 331 333 334 334 335 336 336 335 334 334 332 331 330 329 328 327 325 323 320 317 314 309 303 297 290 283 276 270 264 256 249 244 237 232 229 225 222 220 218
327 328 329 330 331 332 333 334 336 337 337 337 336 335 334 333 332 331 331 330 329 326 324 322 320 316 310 302 295 287 279 272 263 253 246 238 233 228 225 221 218 216 217
326 327 328 329 330 331 333 334 336 337 337 338 337 336 335 334 334 333 333 333 332 330 329 328 327 323 318 310 302 292 282 273 262 250 240 232 226 222 219 217 215 214 214
326 327 328 328 329 331 332 334 336 337 338 338 338 337 336 336 336 336 335 336 335 333 333 333 332 329 326 320 312 300 287 274 258 244 233 226 219 215 213 212 211 211 211
325 326 327 328 330 331 332 334 336 337 338 338 338 338 338 338 338 338 338 338 338 337 336 337 338 336 334 331 324 311 295 276 257 243 230 220 213 209 207 207 206 207 207
325 326 327 328 330 332 333 334 336 337 338 339 338 338 339 339 340 340 340 341 340 340 340 341 342 341 340 337 333 321 303 279 259 236 218 208 204 202 202 202 202 204 204
324 326 328 329 330 331 332 334 335 337 338 339 339 339 339 340 341 342 342 342 342 343 343 344 346 347 347 346 343 335 322 288 239 210 199 197 197 197 199 200 199 200 200
Height
5867 5866 5864 5862 5860 5858 5856 5853 5851 5848 5845 5843 5840 5837 5834 5831 5828 5825 5823 5820 5818 5816 5814 5811 5810 5808 5807 5807 5806 5806 5806 5806 5806 5806 5807 5808 5809 5810 5811 5812 5814 5816 5820
5864 5862 5860 5858 5856 5854 5851 5848 5845 5841 5838 5835 5831 5828 5825 5822 5819 5816 5813 5810 5808 5805 5803 5801 5799 5798 5796 5796 5795 5796 5796 5797 5796 5797 5798 5799 5801 5802 5802 5804 5806 5809 5812
5861 5859 5857 5855 5852 5849 5846 5843 5839 5835 5831 5827 5823 5819 5816 5812 5809 5806 5803 5799 5797 5794 5792 5790 5789 5787 5786 5785 5784 5784 5785 5786 5787 5787 5788 5790 5792 5793 5795 5796 5798 5801 5804
5858 5856 5853 5851 5848 5845 5841 5838 5833 5829 5824 5820 5815 5811 5807 5803 5799 5795 5792 5789 5786 5783 5781 5779 5777 5776 5775 5774 5773 5773 5773 5775 5776 5777 5778 5780 5782 5785 5787 5789 5791 5794 5797
5854 5852 5850 5847 5844 5840 5836 5832 5828 5823 5818 5813 5808 5803 5798 5794 5790 5785 5782 5779 5776 5772 5770 5768 5766 5765 5764 5763 5762 5762 5762 5763 5765 5766 5768 5769 5772 5775 5778 5781 5783 5786 5789
5850 5848 5845 5842 5838 5834 5829 5825 5820 5815 5810 5805 5799 5794 5790 5785 5780 5776 5772 5768 5765 5762 5759 5757 5756 5754 5753 5753 5752 5752 5752 5752 5754 5755 5757 5759 5762 5765 5768 5772 5775 5778 5781
5846 5843 5839 5835 5831 5826 5822 5816 5811 5806 5801 5795 5790 5785 5780 5775 5771 5766 5762 5758 5755 5752 5749 5747 5745 5744 5743 5742 5742 5742 5742 5742 5743 5745 5747 5749 5751 5754 5758 5762 5766 5769 5773
5841 5837 5833 5829 5824 5819 5814 5809 5804 5798 5792 5787 5781 5776 5771 5766 5761 5757 5752 5748 5744 5741 5738 5736 5734 5733 5732 5731 5731 5732 5732 5732 5733 5734 5736 5738 5741 5744 5748 5752 5757 5761 5765
5836 5832 5828 5823 5819 5813 5808 5802 5797 5791 5785 5779 5773 5767 5762 5757 5752 5747 5742 5738 5734 5730 5727 5725 5723 5721 5720 5719 5719 5720 5720 5721 5722 5724 5725 5727 5730 5734 5737 5741 5746 5751 5755
5831 5827 5823 5818 5813 5808 5802 5796 5790 5784 5777 5771 5765 5759 5753 5748 5742 5737 5732 5727 5723 5719 5716 5713 5711 5709 5708 5707 5707 5707 5708 5709 5710 5712 5714 5716 5719 5722 5726 5731 5735 5740 5746
5827 5823 5819 5814 5809 5803 5796 5790 5783 5776 5770 5763 5757 5751 5744 5738 5732 5727 5721 5716 5712 5708 5704 5701 5699 5696 5695 5694 5693 5693 5694 5695 5697 5699 5701 5704 5707 5710 5715 5720 5725 5730 5735
5824 5820 5815 5810 5804 5797 5790 5783 5776 5769 5762 5756 5749 5742 5735 5729 5722 5716 5710 5705 5700 5696 5692 5689 5686 5683 5681 5680 5679 5679 5679 5680 5682 5684 5687 5690 5693 5698 5702 5707 5713 5718 5724
5821 5816 5811 5805 5799 5792 5785 5777 5770 5763 5755 5748 5740 5733 5726 5719 5712 5706 5700 5694 5689 5684 5679 5676 5672 5669 5667 5665 5663 5663 5663 5663 5665 5667 5670 5674 5678 5684 5688 5694 5700 5706 5712
5816 5811 5805 5800 5793 5786 5778 5771 5763 5755 5748 5740 5732 5725 5717 5710 5703 5696 5689 5683 5677 5672 5667 5662 5658 5654 5652 5649 5647 5646 5646 5646 5647 5650 5653 5657 5662 5667 5673 5679 5686 5693 5700
5811 5806 5800 5794 5787 5780 5772 5764 5756 5748 5740 5732 5724 5716 5709 5701 5693 5686 5679 5672 5666 5660 5654 5649 5644 5640 5636 5633 5631 5629 5628 5629 5630 5632 5635 5639 5644 5650 5656 5664 5671 5678 5686
5807 5801 5795 5788 5781 5773 5765 5758 5750 5742 5733 5725 5716 5708 5700 5692 5684 5677 5669 5662 5655 5648 5642 5636 5631 5626 5621 5617 5614 5612 5611 5611 5613 5615 5617 5622 5627 5632 5639 5647 5654 5663 5671
5802 5795 5789 5781 5774 5766 5759 5751 5743 5734 5726 5717 5708 5700 5692 5683 5675 5667 5659 5652 5644 5637 5630 5623 5617 5611 5606 5602 5598 5595 5595 5595 5596 5597 5600 5604 5609 5614 5621 5629 5637 5646 5655
5796 5789 5782 5775 5767 5760 5752 5744 5736 5727 5719 5710 5701 5692 5683 5675 5666 5658 5650 5642 5634 5626 5618 5611 5604 5598 5592 5587 5583 5580 5579 5579 5580 5581 5584 5587 5592 5598 5604 5612 5621 5630 5640
5790 5783 5776 5769 5761 5753 5746 5737 5729 5720 5711 5702 5693 5684 5676 5667 5658 5649 5641 5632 5624 5615 5607 5599 5592 5585 5579 5573 5569 5566 5564 5564 5564 5566 5568 5572 5576 5582 5589 5597 5606 5615 5625
5783 5777 5769 5762 5755 5747 5739 5731 5723 5714 5705 5695 5686 5677 5668 5659 5650 5641 5632 5623 5614 5605 5597 5588 5580 5573 5567 5561 5556 5552 5551 5550 5550 5551 5553 5557 5561 5567 5574 5582 5592 5602 5612
5777 5770 5763 5756 5749 5741 5733 5725 5716 5707 5698 5688 5679 5669 5660 5651 5642 5633 5624 5615 5606 5597 5588 5579 5570 5562 5555 5549 5544 5541 5538 5537 5536 5537 5539 5543 5548 5554 5562 5570 5580 5590 5599
5771 5764 5757 5749 5742 5734 5727 5718 5710 5701 5691 5682 5672 5662 5653 5644 5635 5625 5616 5607 5597 5588 5579 5570 5561 5553 5546 5539 5534 5530 5528 5526 5525 5526 5529 5533 5538 5544 5551 5560 5569 5578 5588
5765 5758 5751 5743 5736 5728 5720 5712 5703 5694 5685 5675 5665 5656 5646 5637 5628 5619 5610 5600 5590 5581 5572 5563 5554 5546 5539 5532 5527 5523 5520 5518 5518 5519 5521 5525 5530 5536 5543 5551 5560 5569 5579
5758 5751 5744 5737 5729 5722 5714 5706 5697 5688 5679 5669 5660 5650 5641 5631 5622 5613 5603 5594 5584 5575 5566 5558 5549 5541 5534 5528 5523 5518 5516 5514 5514 5514 5516 5519 5524 5530 5537 5545 5554 5563 5572
5751 5744 5738 5730 5723 5715 5708 5699 5691 5682 5673 5663 5654 5644 5635 5626 5617 5608 5598 5589 5580 5570 5562 5554 5545 5538 5531 5525 5520 5516 5513 5512 5511 5511 5513 5516 5521 5527 5534 5541 5549 5558 5566
5744 5738 5731 5724 5717 5709 5701 5693 5685 5676 5667 5658 5649 5640 5631 5621 5613 5603 5594 5584 5576 5567 5558 5550 5543 5536 5529 5524 5519 5515 5512 5511 5510 5511 5512 5515 5520 5525 5531 5538 5545 5553 5561